Regional Weather Roundup
Issued by NWS

Home | Current Version | Previous Version | Graphics & Text | Print | Product List | Glossary On
Versions: 1 2 3 4 5 6 7 8 9 10 11 12 13 14 15 16 17 18 19 20 21 22 23 24 25 26 27 28 29 30 31 32 33 34 35 36 37 38 39 40 41 42 43 44 45 46 47 48 49 50
000
ASUS43 KOAX 211802
RWRNE

WEATHER ROUNDUP FOR NEBRASKA
NATIONAL WEATHER SERVICE OMAHA NE
1200 PM CST FRI NOV 21 2014

NOTES: SATELLITE DATA IS BEING USED TO AUGMENT CLOUD COVER ABOVE
       12000 FEET.
       "FAIR" INDICATES FEW OR NO CLOUDS BELOW 12,000 FEET WITH NO
       SIGNIFICANT WEATHER AND/OR OBSTRUCTIONS TO VISIBILITY.

  * THESE STATIONS DO NOT REPORT WEATHER SUCH AS RAIN...SNOW OR FOG.

NEZ001>004-019>022-054>056-211900-
NEBRASKA PANHANDLE

CITY           SKY/WX    TMP DP  RH WIND       PRES   REMARKS
SCOTTSBLUFF    PTSUNNY   50  24  36 CALM      29.92F
6HR MIN TEMP:  28; 6HR MAX TEMP:  50;

ALLIANCE       MOSUNNY   51  24  34 SW7       29.90F
6HR MIN TEMP:  26; 6HR MAX TEMP:  52;

CHADRON        PTSUNNY   45  29  53 CALM      29.87F
6HR MIN TEMP:  22; 6HR MAX TEMP:  45;

KIMBALL        MOSUNNY   51  21  30 W3        29.93F
SIDNEY         MOSUNNY   52  21  29 W6        29.95F
6HR MIN TEMP:  28; 6HR MAX TEMP:  55;

$$

NEZ057>060-069>072-079>082-211900-
SOUTHWEST NEBRASKA

CITY           SKY/WX    TMP DP  RH WIND       PRES   REMARKS
NORTH PLATTE   PTSUNNY   45  28  51 S10       29.98F
6HR MIN TEMP:  19; 6HR MAX TEMP:  45;

IMPERIAL       PTSUNNY   48  28  46 S8        29.97F
6HR MIN TEMP:  22; 6HR MAX TEMP:  49;

LEXINGTON      CLOUDY    44  29  55 SW12      30.02F
MCCOOK         MOSUNNY   48  30  49 S7        30.01F
6HR MIN TEMP:  20; 6HR MAX TEMP:  49;

$$

NEZ005>010-023>029-035>040-094-211900-
NORTH CENTRAL NEBRASKA

CITY           SKY/WX    TMP DP  RH WIND       PRES   REMARKS
VALENTINE      PTSUNNY   43  28  55 SW14      29.87F
6HR MIN TEMP:  24; 6HR MAX TEMP:  43;

AINSWORTH      PTSUNNY   41  28  58 S15G21    29.89F
BROKEN BOW     PTSUNNY   44  30  57 SW17G28   29.98F
6HR MIN TEMP:  23; 6HR MAX TEMP:  46;

ORD            PTSUNNY   44  28  53 S16       30.00F
6HR MIN TEMP:  17; 6HR MAX TEMP:  44;

$$

NEZ041-046>049-061>064-073>077-083>087-211900-
SOUTH CENTRAL NEBRASKA

CITY           SKY/WX    TMP DP  RH WIND       PRES   REMARKS
GRAND ISLAND   PTSUNNY   41  25  53 S10       30.08F
6HR MIN TEMP:  21; 6HR MAX TEMP:  41;

AURORA         PTSUNNY   35  25  67 S7        30.08F WCI  29
HASTINGS       PTSUNNY   39  23  52 S5        30.07F
6HR MIN TEMP:  20; 6HR MAX TEMP:  39;

KEARNEY *      PTSUNNY   37  25  60 S13       30.06F WCI  29
YORK           PTSUNNY   32  25  74 S9        30.10F WCI  24
$$

NEZ011>018-030>034-042>045-211900-
NORTHEAST NEBRASKA

CITY           SKY/WX    TMP DP  RH WIND       PRES   REMARKS
NORFOLK        PTSUNNY   32  24  72 S13       30.05F WCI  22
6HR MIN TEMP:  19; 6HR MAX TEMP:  32;

ALBION         PTSUNNY   34  24  67 S12G17    30.04F WCI  25
BLAIR          MOSUNNY   34  22  61 S13       30.12F WCI  25
COLUMBUS *     PTSUNNY   30  21  69 S12       30.11F WCI  21
FREMONT        MOSUNNY   33  24  67 S12       30.13F WCI  25
TEKAMAH        SUNNY     36  23  59 S16       30.14F WCI  26
6HR MIN TEMP:  12; 6HR MAX TEMP:  36;

$$

NEZ050>053-065>068-078-088>093-211900-
SOUTHEAST NEBRASKA

CITY           SKY/WX    TMP DP  RH WIND       PRES   REMARKS
LINCOLN        PTSUNNY   36  24  62 S12       30.15F WCI  28
6HR MIN TEMP:  18; 6HR MAX TEMP:  36;

OMAHA EPPLEY   PTSUNNY   34  22  61 S14       30.16F WCI  25
6HR MIN TEMP:  17; 6HR MAX TEMP:  34;

BEATRICE       PTSUNNY   38  24  56 S7        30.12F WCI  33
FALLS CITY     MOSUNNY   41  24  51 SE14      30.16F
6HR MIN TEMP:  17; 6HR MAX TEMP:  41;

NEBRASKA CITY  CLOUDY    33  18  54 SE9       30.15F WCI  25
$$

NEZ044-045-051>053-067-211900-
OMAHA AREA

CITY           SKY/WX    TMP DP  RH WIND       PRES   REMARKS
OMAHA EPPLEY   PTSUNNY   34  22  61 S14       30.16F WCI  25
6HR MIN TEMP:  17; 6HR MAX TEMP:  34;

BLAIR          MOSUNNY   34  22  61 S13       30.12F WCI  25
FREMONT        MOSUNNY   33  24  67 S12       30.13F WCI  25
OFFUTT AFB     PTSUNNY   34  22  61 SE15      30.15F WCI  24
WAHOO          FAIR      32  22  66 S10       30.13F WCI  23
$$



USA.gov is the U.S. government's official web portal to all federal, state and local government web resources and services.